RH
28 20 17 18 21 23 25 27 27 26 27 27 28 29 30 32 32 33 34 34 36 35 43 51 43 44 57 57 53 49 47 51 51 62 76 68 59 59 56 56 55 54 53 51 52 53 51 48 47 45 45 44 43 43 42 41 41 40 39 39 40 43 41 39 40 37 36 37 33 29 27 30 41 54 64 66 63 62 68 77 78 75 78 81 80
27 22 18 18 22 24 25 27 25 26 27 27 29 30 32 32 32 33 33 35 35 37 48 48 38 47 59 53 51 51 48 53 62 68 71 64 58 59 56 53 52 51 51 50 49 50 51 51 51 50 48 47 45 44 43 42 41 40 41 40 40 45 43 42 44 40 42 45 42 45 43 40 47 53 59 61 54 54 67 79 82 81 81 80 81
30 25 19 18 22 23 26 26 24 26 28 29 30 31 33 32 33 33 33 36 35 39 49 44 38 46 49 44 49 53 50 53 63 65 63 59 57 57 55 51 49 48 48 48 46 46 50 51 51 52 51 51 49 46 45 45 44 43 43 42 42 44 40 43 50 45 44 44 47 63 63 58 67 63 52 48 45 52 66 71 71 80 89 86 83
30 27 22 18 21 24 25 24 24 29 29 30 31 31 32 32 33 33 33 35 36 39 44 41 40 44 41 41 48 53 51 52 54 54 54 53 52 51 51 50 48 46 45 46 46 46 49 50 49 49 49 50 50 49 49 47 47 46 46 45 44 45 44 47 51 46 43 45 53 68 72 79 89 74 53 46 45 54 64 62 64 79 91 90 91
29 27 24 21 21 22 22 22 26 31 30 30 31 31 32 32 32 33 34 35 36 37 39 40 41 41 39 43 51 53 52 53 51 49 51 51 50 50 49 48 46 46 47 50 50 49 49 50 49 47 46 47 46 47 49 47 47 47 48 47 44 46 49 48 47 43 42 47 50 61 80 96 88 64 57 57 54 60 63 60 65 75 79 80 89
30 27 23 21 19 19 21 23 29 31 29 29 31 31 31 32 33 33 34 35 36 36 37 40 41 39 39 44 51 54 55 57 54 52 53 53 54 54 50 48 49 51 53 53 53 52 50 50 51 49 46 46 45 46 48 47 49 49 48 47 45 46 48 48 45 40 43 48 46 47 63 74 66 62 76 76 62 60 63 66 69 70 69 71 79
32 29 25 23 20 21 22 23 29 30 28 29 31 32 31 32 33 33 35 36 35 36 37 40 40 39 39 42 48 54 58 57 53 53 55 57 59 56 52 53 55 56 55 54 53 52 51 51 51 49 46 46 46 46 48 49 52 51 47 46 47 46 47 47 45 42 45 50 49 47 48 48 51 66 79 80 73 66 64 70 71 67 67 68 71
31 30 28 27 22 22 21 21 26 26 26 30 31 32 32 32 33 34 35 36 35 36 38 39 40 39 40 41 45 52 55 54 54 56 57 59 58 54 54 57 57 56 55 54 54 52 52 52 50 49 49 50 51 52 53 56 55 51 48 48 47 47 48 49 52 53 51 49 50 53 50 47 53 62 65 70 78 76 67 65 67 70 70 68 69
31 29 27 26 23 19 17 18 22 24 27 30 31 31 33 33 34 35 35 36 36 36 38 39 39 40 41 41 43 48 51 53 53 54 55 56 55 53 56 58 57 56 56 55 54 52 52 53 52 54 55 56 61 64 61 59 55 50 49 48 47 46 47 48 51 54 52 52 57 60 62 63 65 66 61 60 70 78 76 70 70 75 74 70 69
33 30 25 22 19 15 15 18 20 24 27 29 31 33 34 34 34 36 35 36 36 37 38 39 39 40 41 41 43 46 48 51 50 51 54 53 53 55 56 57 57 57 56 54 53 53 52 54 56 57 57 59 64 63 57 54 51 49 48 48 52 53 50 49 50 51 54 57 59 62 70 75 74 72 68 65 69 75 77 76 75 77 78 74 71
35 34 28 22 19 15 17 19 21 25 28 30 32 33 34 34 35 36 36 36 36 37 39 39 40 40 41 42 44 45 47 49 51 53 54 52 53 56 57 57 58 56 55 53 54 54 53 55 57 58 58 59 59 56 52 52 51 50 48 48 55 58 57 56 56 55 55 54 52 55 66 73 74 77 73 69 70 70 72 74 74 76 78 77 75
35 35 32 28 25 23 23 23 24 27 30 31 33 34 35 35 36 37 36 36 35 38 40 40 41 40 41 44 45 45 46 49 53 54 54 54 55 57 58 58 57 55 54 54 55 55 55 56 57 57 57 56 56 55 54 53 52 51 50 49 51 52 51 52 56 59 59 61 60 57 64 73 77 79 74 69 71 72 73 74 73 76 79 77 74
37 35 32 31 29 27 27 27 28 30 31 32 32 34 35 35 36 37 36 35 36 38 40 41 41 41 42 44 45 46 48 52 55 56 55 55 56 58 59 58 56 54 54 55 56 56 57 58 58 57 57 58 58 58 58 57 56 55 54 53 51 50 49 49 52 54 58 71 80 75 75 83 85 83 79 76 76 75 76 74 70 72 79 79 74
38 34 30 29 27 25 26 27 28 30 30 31 33 33 34 35 36 37 36 35 36 39 41 41 41 42 43 44 46 47 48 51 54 55 55 56 58 59 57 55 54 54 55 56 57 57 57 57 58 59 60 61 61 62 62 62 62 60 58 56 54 53 52 51 51 49 49 64 79 81 80 81 77 74 74 76 78 78 79 76 71 74 81 80 76
38 33 30 26 24 23 24 26 27 29 29 30 32 33 34 36 36 36 36 35 37 39 40 41 41 43 44 45 47 47 50 53 55 57 59 59 58 55 52 52 54 56 56 57 57 57 57 58 60 62 63 64 65 65 66 66 66 66 63 61 58 57 55 52 52 51 50 54 61 66 68 66 63 64 70 76 78 78 77 77 76 81 87 82 76
33 31 29 25 23 23 24 26 27 28 29 30 31 32 34 36 36 36 36 36 38 39 39 40 42 44 45 46 47 49 54 57 57 57 57 55 53 50 51 54 55 56 56 57 57 56 58 60 62 63 65 67 68 69 69 70 71 72 70 66 62 59 58 55 53 51 51 50 52 54 56 56 55 55 61 67 69 72 77 83 83 85 92 93 82
28 27 25 23 22 23 24 26 27 27 29 30 29 31 32 34 35 35 36 37 39 39 39 41 42 44 46 48 50 50 52 53 52 51 50 49 50 50 53 54 54 55 56 56 56 58 61 62 63 65 68 71 73 73 74 74 75 75 73 70 66 62 59 57 55 54 53 52 52 52 53 54 53 52 55 58 63 70 75 82 87 83 88 96 93
26 23 22 21 21 22 24 25 25 24 26 27 27 29 32 33 35 35 37 38 38 39 40 41 42 45 47 49 51 51 50 50 49 49 49 49 50 51 53 54 54 55 55 55 57 61 63 63 64 68 72 75 77 78 78 78 78 78 76 73 70 66 62 59 57 55 54 52 51 51 52 52 51 51 50 50 60 76 83 86 93 92 91 94 95
27 22 20 21 20 21 24 25 24 23 24 26 27 30 32 33 34 36 37 38 38 40 41 41 42 44 47 49 50 51 50 50 50 50 50 50 51 52 53 54 55 55 54 57 61 63 63 64 68 73 77 80 82 82 81 80 80 80 79 77 75 71 67 63 60 58 55 53 51 50 50 49 48 48 47 44 50 65 73 76 83 91 96 97 93
26 22 19 19 19 20 22 22 23 22 24 27 29 31 33 34 35 37 38 38 39 41 41 42 42 43 46 49 50 50 50 50 50 50 51 52 53 54 55 56 55 54 56 61 63 63 64 68 73 78 81 84 85 85 84 83 83 83 82 80 78 76 72 68 65 62 58 56 54 52 50 49 48 46 46 45 43 44 49 55 67 82 93 97 95
23 21 18 17 17 19 20 21 21 22 25 28 30 32 33 34 36 37 38 39 39 41 42 42 42 44 47 49 50 50 49 49 50 50 52 53 54 56 57 57 55 56 60 63 63 64 67 72 78 82 85 87 89 89 88 87 86 86 86 85 83 81 78 74 71 67 63 60 57 54 52 50 49 49 48 48 47 45 45 50 61 75 85 90 92
20 18 16 16 16 17 19 21 24 27 30 31 31 33 34 35 37 38 38 39 40 41 42 42 43 45 48 49 50 50 49 50 51 52 53 55 56 58 57 57 57 59 61 61 64 68 72 77 81 84 86 90 92 93 91 90 89 89 89 88 87 86 83 80 76 72 69 65 61 58 56 54 53 54 55 55 56 56 57 59 62 68 78 85 87
19 18 16 16 15 15 18 22 27 29 30 31 32 34 35 35 37 38 38 39 39 41 42 42 44 46 48 49 49 50 50 51 53 54 56 57 58 58 57 57 58 60 62 64 69 74 77 80 82 85 91 95 96 95 94 93 92 92 93 92 92 90 88 85 83 79 76 72 68 64 61 59 56 55 55 53 52 54 58 65 71 75 83 91 93
21 19 17 16 15 17 20 23 29 32 32 33 34 35 36 36 38 38 38 39 40 41 42 43 46 48 50 50 50 51 52 53 55 56 58 59 59 58 57 58 60 63 66 70 75 78 81 83 85 89 95 98 98 98 97 97 96 96 97 97 97 96 94 92 90 87 84 80 76 72 68 66 62 60 59 56 52 52 51 55 65 73 82 89 90
23 22 19 18 18 20 22 24 28 31 32 34 34 35 37 37 38 38 38 40 41 42 43 45 48 50 50 50 51 52 54 55 57 58 59 59 58 58 59 61 64 67 71 76 79 81 84 89 93 96 99 100 99 100 100 100 99 99 99 99 98 99 98 98 95 93 92 88 85 82 77 73 70 66 64 62 59 58 56 57 64 69 74 81 81
28 25 23 21 20 22 23 24 27 29 31 33 34 36 37 37 38 37 38 41 41 43 44 47 50 51 51 52 54 55 56 58 60 60 60 59 59 61 63 65 68 72 77 80 82 85 90 96 100 100 101 100 100 100 100 100 100 100 101 100 99 100 100 100 99 96 95 94 91 89 85 82 79 74 71 68 64 62 61 63 70 71 70 75 77
34 31 26 23 22 23 24 25 27 28 30 33 34 36 37 38 38 38 39 41 42 44 46 49 52 52 53 55 56 57 59 60 61 61 60 60 61 63 66 69 73 77 80 82 85 90 96 101 102 100 101 101 101 101 101 101 101 101 101 101 100 101 100 99 99 97 95 95 93 92 90 87 84 81 77 74 71 68 67 68 70 69 66 67 71
39 36 31 27 24 24 24 25 27 29 31 33 34 36 36 37 37 38 41 42 43 46 48 51 53 53 54 56 57 59 61 60 61 62 63 62 62 65 70 74 78 81 83 87 92 95 98 101 102 100 101 101 101 102 101 101 101 100 101 101 100 100 101 99 98 97 96 95 94 92 91 89 87 85 82 79 75 72 70 68 67 65 65 64 66
40 37 35 32 26 25 25 24 27 30 32 34 36 37 38 38 38 39 41 42 44 48 51 53 54 54 55 57 58 60 60 61 62 64 67 67 67 70 75 78 81 85 89 93 96 97 99 101 102 102 102 101 101 101 101 100 100 99 100 101 99 100 101 100 100 99 98 98 97 96 93 90 87 83 81 82 82 79 76 72 67 65 66 66 66
40 38 37 33 28 27 25 24 27 29 32 35 36 38 39 39 40 41 43 44 46 50 53 54 55 55 57 58 60 61 60 61 64 67 71 73 73 75 78 81 85 90 93 94 95 98 100 102 102 101 100 101 101 99 98 99 101 101 100 100 100 100 100 100 100 100 100 100 100 99 97 95 93 89 89 93 94 92 90 86 80 76 72 69 67
40 39 38 35 32 30 27 27 28 28 31 33 34 37 39 40 43 44 45 46 48 52 55 55 55 56 58 59 60 60 60 62 67 73 76 76 76 78 81 86 90 93 93 94 98 101 102 101 101 101 100 101 100 95 94 99 102 100 100 100 100 100 100 100 100 100 100 100 100 101 99 98 98 96 96 99 100 99 98 96 94 92 88 84 79
39 40 41 40 38 34 31 31 29 28 32 31 31 37 41 43 46 46 47 49 51 54 55 55 56 57 58 60 61 62 64 65 70 75 77 77 78 82 86 90 93 93 94 98 102 103 102 101 101 102 100 97 95 92 93 100 102 100 100 101 100 100 101 100 100 100 100 100 100 100 100 99 99 98 96 95 95 96 97 97 96 96 97 97 95
40 41 42 42 41 38 34 32 29 29 31 28 28 35 40 43 45 47 50 52 53 55 55 55 57 58 59 60 61 63 66 68 72 75 77 80 83 87 90 91 92 94 97 102 104 102 101 100 100 100 97 94 92 90 92 99 102 100 100 100 100 100 99 99 101 101 99 101 101 100 101 100 98 98 98 96 93 91 91 93 95 95 95 97 98
42 42 41 41 41 40 36 33 30 29 29 26 27 32 37 41 45 49 53 54 54 56 56 57 58 59 60 61 62 65 68 71 75 78 80 84 87 90 91 92 94 99 103 104 103 101 99 97 96 96 95 95 92 89 91 99 101 100 100 100 100 98 90 88 96 101 100 100 100 100 101 100 98 98 98 97 95 92 90 90 91 90 89 91 93
43 42 41 40 41 42 39 35 31 30 30 30 31 34 39 43 48 52 55 55 55 56 57 58 59 59 61 62 64 68 72 76 79 81 85 87 90 93 93 94 99 102 103 103 100 98 96 94 94 96 97 95 91 88 93 100 101 100 100 100 101 97 84 77 86 97 101 100 100 100 101 99 99 100 98 97 97 95 95 96 95 91 86 84 84
43 41 41 39 39 40 39 35 32 31 32 32 32 35 42 47 50 55 58 57 57 58 59 59 59 61 62 63 67 71 74 79 82 84 88 91 93 96 96 97 100 101 100 100 98 96 95 93 93 95 98 97 89 86 94 101 100 100 101 99 101 99 88 77 78 86 95 100 101 100 100 100 100 100 100 101 100 98 99 100 100 98 94 90 85
41 39 38 37 36 36 36 34 32 33 32 30 32 37 43 49 54 59 61 60 59 60 60 60 60 62 63 65 70 74 78 82 84 87 91 93 95 99 99 98 100 102 102 100 97 94 94 96 96 95 97 98 90 85 94 101 100 100 100 98 100 100 92 84 80 78 81 91 98 101 100 100 100 100 99 100 101 101 101 101 101 100 100 99 94
42 40 39 38 35 33 33 33 33 34 31 29 33 39 45 52 58 62 63 62 62 62 62 62 61 62 64 67 70 75 80 83 87 91 94 95 98 102 99 96 99 103 102 98 97 97 97 97 98 95 96 100 96 88 93 101 101 100 98 95 98 100 96 92 90 81 71 74 89 99 100 100 100 101 100 100 101 101 100 100 101 100 101 102 98
44 44 42 39 35 32 32 33 34 34 32 31 35 41 47 54 59 63 66 65 64 63 62 62 62 63 66 69 71 76 81 84 89 93 95 97 100 99 95 94 97 101 101 99 100 103 101 96 95 94 95 100 100 90 89 98 101 98 94 92 95 101 100 98 97 90 78 76 85 92 93 95 97 97 98 99 99 98 100 101 100 99 102 101 96
49 49 45 40 35 31 32 34 33 33 32 33 38 44 49 55 59 65 69 67 63 61 61 62 64 66 68 71 74 79 83 87 91 94 96 97 97 95 94 96 99 101 103 102 100 102 102 95 92 92 92 94 95 91 91 99 101 95 89 90 94 99 101 101 100 97 93 92 93 94 90 86 86 88 91 96 97 95 98 100 99 100 102 96 91
54 54 50 45 39 33 33 33 31 33 34 34 40 48 52 55 62 69 70 64 60 62 64 65 67 69 71 74 77 80 85 88 90 94 98 97 93 93 96 99 101 103 104 103 99 99 100 95 90 91 89 86 86 91 97 101 97 89 84 86 94 99 101 100 99 99 100 98 98 99 93 84 83 90 95 99 99 97 95 96 98 100 99 91 89
59 58 57 54 46 39 38 34 32 35 35 34 41 50 53 58 68 70 64 61 64 67 68 69 69 71 74 76 79 83 86 88 91 94 97 94 91 94 98 99 103 104 104 102 99 98 99 95 88 87 86 81 83 94 102 99 90 84 82 87 96 100 99 98 99 100 100 99 100 101 94 85 88 96 99 100 100 98 97 96 95 96 97 96 96
64 63 64 61 55 48 44 39 37 37 35 35 43 50 55 62 67 62 59 65 72 71 70 72 72 73 75 78 82 86 87 88 91 93 93 92 93 96 99 101 104 104 102 101 100 100 101 96 89 84 81 80 87 99 100 88 78 78 83 90 98 100 97 97 100 101 101 101 100 95 89 86 90 95 97 98 97 96 96 94 90 88 90 94 97
68 68 68 66 62 57 51 45 42 39 37 39 42 51 63 67 60 55 63 74 77 74 74 75 75 75 78 81 84 87 88 89 90 90 92 94 96 98 101 103 105 104 101 100 100 101 102 99 95 89 81 82 94 100 91 74 67 75 87 94 96 96 95 95 98 100 100 96 91 87 87 92 96 96 96 96 96 97 97 95 93 94 93 92 95
72 72 71 70 69 64 56 50 45 42 42 42 42 51 66 66 55 57 70 78 77 77 77 77 77 79 81 83 87 89 89 89 88 89 93 97 98 101 103 102 102 103 101 100 101 101 101 101 102 97 91 92 97 93 79 66 64 74 87 93 96 97 97 96 96 97 97 93 91 94 97 98 97 96 96 97 98 99 97 96 98 98 94 93 98
76 75 73 74 73 68 63 57 51 47 46 46 47 52 58 57 56 63 73 77 78 79 80 80 81 83 84 86 89 90 90 88 87 89 95 99 101 104 104 102 103 104 103 101 101 101 101 101 101 100 99 95 88 79 70 65 67 76 85 94 100 100 95 92 94 97 98 97 96 96 95 93 92 94 96 99 99 97 94 95 97 96 91 93 98
77 77 76 77 77 74 71 66 61 57 52 51 55 55 52 54 62 68 73 79 81 81 82 84 85 86 87 88 89 90 89 86 87 91 96 99 101 103 104 104 103 103 103 103 102 101 102 102 100 101 100 94 87 81 71 64 71 83 92 99 100 92 85 89 96 99 100 99 96 93 91 92 94 96 96 97 97 97 96 96 97 97 95 96 98
78 78 78 80 80 79 77 73 69 65 59 58 60 58 55 60 68 72 76 82 84 82 84 86 86 87 90 89 89 91 89 86 88 92 95 97 97 99 102 103 99 97 100 100 99 98 99 100 102 101 98 98 99 89 73 70 82 93 98 100 97 88 88 95 99 100 101 99 95 92 91 91 92 92 93 94 94 95 96 97 97 99 99 97 98
79 79 80 82 82 81 80 78 74 70 65 64 64 61 60 64 70 76 81 84 85 85 87 89 89 89 91 93 93 92 89 86 89 91 93 93 93 95 98 96 91 91 94 94 95 96 96 98 101 101 99 101 101 90 80 85 95 97 97 99 97 95 98 100 98 99 100 96 93 91 90 91 93 94 95 96 95 94 94 94 95 98 100 99 98
80 80 82 83 84 84 83 81 78 75 71 69 68 66 66 68 72 79 84 85 86 88 90 92 92 92 93 96 98 95 89 87 89 92 92 92 92 94 98 96 91 90 95 97 98 98 97 98 101 101 99 98 98 94 91 95 97 96 98 100 99 99 101 99 99 101 99 95 93 93 93 96 98 99 99 100 99 99 99 96 94 96 99 100 99
81 81 84 85 86 86 85 84 81 79 77 75 73 71 71 71 74 80 85 86 87 89 91 94 95 93 94 97 98 96 90 87 90 93 94 94 93 93 96 99 99 98 99 100 99 98 97 98 99 100 98 94 92 93 94 96 98 99 100 100 99 100 101 99 100 102 98 95 95 97 98 99 100 101 102 101 100 102 103 101 98 97 98 99 98
Wind_Speed
13 13 11 11 11 11 11 11 10 10 12 14 14 16 16 17 18 18 19 19 18 18 15 15 17 16 14 14 16 18 17 15 11 8 11 14 13 12 12 12 11 10 10 10 9 7 6 7 8 8 8 9 10 11 12 12 14 16 18 19 21 22 22 22 24 27 26 26 29 29 26 20 11 7 7 7 10 13 13 12 12 14 17 19 20
11 13 13 12 13 13 13 12 11 12 14 15 15 16 16 16 17 17 18 17 16 16 13 14 15 12 12 16 17 17 15 13 12 11 11 12 11 11 12 12 12 12 12 11 11 11 10 10 10 9 9 10 9 9 10 11 13 14 17 19 19 19 20 20 22 23 19 18 19 18 21 18 9 7 5 6 14 16 12 11 10 12 14 16 18
8 12 14 14 14 14 15 13 13 14 15 15 16 16 15 16 16 16 16 15 15 14 12 14 14 10 12 15 15 15 14 12 11 10 10 10 10 12 13 13 14 15 14 14 13 13 13 13 13 12 12 12 12 12 12 13 14 14 16 18 18 18 18 17 18 18 17 17 13 6 8 10 8 9 10 16 20 16 12 12 14 13 12 12 14
9 9 12 15 15 16 16 15 14 15 16 16 16 16 15 15 16 16 15 14 14 13 12 14 13 11 14 14 13 13 13 12 11 10 11 13 13 14 15 15 16 16 16 15 13 12 12 13 14 14 14 15 15 15 15 15 15 16 16 15 15 17 17 16 14 15 17 14 8 2 4 5 4 7 16 24 21 14 14 16 14 11 11 11 10
10 8 10 13 16 18 18 16 16 17 18 18 17 16 16 16 15 15 14 13 13 13 13 13 12 13 15 14 12 12 12 12 12 13 14 15 16 16 17 17 16 15 13 12 11 11 11 12 13 14 15 15 15 15 15 15 15 15 14 13 13 14 15 16 14 15 15 8 4 2 3 3 3 9 16 17 15 17 19 15 10 9 13 15 13
10 9 10 13 16 18 18 17 18 20 20 19 18 17 16 16 15 14 14 13 13 13 13 12 11 13 14 13 12 12 11 10 11 14 15 16 16 17 17 15 13 11 10 11 11 11 12 12 13 14 14 15 15 15 14 14 14 13 13 13 14 14 13 15 16 17 13 6 5 4 4 3 6 10 9 7 14 19 14 10 10 13 17 15 14
9 10 12 13 15 17 18 19 22 22 21 19 18 17 17 16 15 14 14 14 13 13 12 12 12 13 11 10 11 11 11 12 13 14 15 16 15 16 15 12 11 12 13 13 13 13 14 13 15 15 15 15 15 15 15 14 14 14 14 14 14 13 13 14 16 16 12 8 7 5 7 8 8 7 5 4 11 13 10 13 17 16 15 15 16
9 9 10 14 18 19 20 21 23 23 21 19 19 19 17 16 15 15 14 14 14 13 12 12 13 13 11 10 10 11 12 14 15 15 15 15 14 15 14 12 13 14 14 14 13 14 14 14 15 15 14 14 13 13 13 13 14 15 15 15 14 14 13 13 13 12 11 11 9 7 10 11 9 9 9 8 6 7 12 16 18 18 16 14 13
10 10 11 15 19 21 21 22 22 21 20 21 21 19 18 16 16 15 15 15 15 14 13 13 13 13 12 11 11 11 12 14 15 15 15 14 15 15 13 13 14 14 13 14 14 14 14 14 14 13 13 13 12 11 11 13 14 15 15 15 16 16 15 15 15 14 12 13 11 10 10 9 8 9 10 12 9 8 9 9 13 19 18 14 12
10 11 14 18 20 21 21 21 21 21 21 22 21 20 19 17 17 17 17 16 16 15 14 14 14 13 13 12 12 12 13 14 14 14 13 14 15 14 13 14 14 13 13 14 14 14 14 14 13 13 13 12 11 12 13 14 14 13 14 14 14 15 16 16 17 16 14 14 13 12 10 8 8 7 7 10 10 9 8 7 10 13 13 16 16
9 10 14 19 20 20 20 20 21 21 21 22 22 21 20 19 18 19 18 17 16 16 15 15 15 14 14 13 13 13 14 13 13 12 12 13 14 13 14 14 14 13 13 14 14 14 14 14 13 13 14 13 13 14 14 14 14 14 14 15 14 14 14 14 15 15 15 16 15 14 13 11 10 8 8 9 7 7 8 7 10 12 12 17 20
9 8 11 14 16 18 19 21 22 22 23 24 24 23 22 21 20 20 20 18 17 17 16 16 16 15 14 14 15 14 13 13 12 12 13 13 13 14 14 14 14 14 14 14 13 13 14 14 14 14 14 15 15 15 15 15 15 16 16 17 16 16 16 15 15 15 14 16 17 16 15 14 13 12 12 13 11 10 9 7 9 14 12 14 21
9 8 8 10 13 16 19 22 23 24 25 26 26 25 24 23 22 22 21 19 18 17 17 17 17 16 15 15 16 15 14 13 14 14 14 13 13 13 13 14 14 15 15 14 14 14 14 15 15 16 16 16 16 16 16 17 17 17 17 17 17 17 17 16 16 16 15 15 15 14 13 12 12 12 12 14 13 12 11 8 11 15 12 12 18
9 9 8 9 13 18 20 22 24 25 27 27 26 26 25 24 23 23 22 20 18 18 18 18 18 17 16 16 16 16 15 15 15 15 14 13 13 14 15 15 16 17 16 15 15 15 15 16 16 17 17 17 17 18 18 18 18 18 18 17 17 17 18 17 17 17 16 15 14 12 11 11 11 12 13 14 14 13 12 9 10 13 13 13 14
8 9 9 12 17 20 21 23 24 26 27 27 27 26 25 25 25 24 23 21 19 18 19 19 19 17 16 16 16 16 16 15 15 14 14 14 14 15 17 17 17 17 17 16 16 16 17 17 17 17 18 19 20 20 20 20 19 19 19 19 19 19 18 19 18 18 17 17 16 15 14 14 13 11 12 13 14 14 14 13 11 9 10 10 9
8 9 10 14 19 21 22 23 25 26 27 27 27 27 27 27 26 25 24 21 18 18 19 19 18 17 17 17 17 16 15 15 15 15 15 16 16 16 16 16 17 17 18 17 17 18 18 18 18 19 20 21 21 21 21 21 21 20 21 21 21 20 19 19 19 18 18 18 18 18 17 17 15 13 13 14 15 16 15 15 13 10 9 7 6
10 10 11 14 18 21 23 25 26 27 27 28 29 29 28 28 26 25 23 21 19 19 19 19 18 17 18 17 16 16 16 17 17 17 17 17 17 16 16 17 18 18 18 18 19 19 19 19 21 22 21 21 21 21 21 21 21 21 21 21 21 20 20 20 19 18 18 18 17 17 17 17 16 14 14 14 15 17 17 16 15 15 13 8 5
10 11 12 15 18 21 24 26 28 29 29 30 30 29 29 27 26 25 23 21 20 19 19 19 18 17 17 17 16 16 17 17 18 17 17 17 17 17 18 19 19 18 18 19 19 19 20 21 22 22 22 21 21 20 20 20 20 21 21 21 21 20 20 20 20 19 19 18 18 18 17 18 17 16 16 15 15 16 16 16 15 15 15 12 8
10 11 11 13 18 22 24 27 29 30 30 30 30 29 29 28 27 25 23 21 20 19 19 19 18 17 17 17 17 17 17 17 17 16 16 17 18 19 19 19 18 18 18 19 19 19 21 22 22 22 22 21 20 19 19 20 20 21 21 21 21 20 20 21 20 19 19 19 19 19 18 19 19 19 18 18 18 17 16 15 15 14 14 15 13
10 11 10 12 18 24 26 28 29 30 31 31 30 30 30 28 27 25 24 21 20 20 20 20 19 18 18 18 17 17 17 17 16 16 17 18 19 19 18 18 18 18 18 18 19 20 22 23 22 22 21 21 20 19 19 19 20 21 21 21 21 20 21 22 21 20 19 19 19 19 19 19 19 20 21 20 21 21 19 18 18 16 15 14 15
10 10 10 12 18 23 26 28 29 29 29 30 31 31 30 29 28 26 24 22 21 22 21 21 20 18 18 18 17 18 18 17 17 17 18 19 19 19 19 19 18 17 17 19 20 21 22 22 22 22 22 22 21 20 20 19 20 21 22 22 22 21 22 22 22 22 21 20 20 20 21 20 19 19 20 20 20 20 20 20 19 18 16 15 15
11 11 10 11 16 21 23 25 26 26 28 30 32 32 31 30 29 26 25 23 23 22 22 22 21 19 19 19 19 18 18 18 18 19 19 20 20 20 19 18 17 17 18 20 21 21 21 21 22 23 23 22 21 20 19 18 19 20 21 21 21 21 22 22 22 22 22 21 21 22 22 21 20 19 19 19 18 17 18 19 19 19 17 16 15
11 10 10 11 16 19 21 23 25 27 30 31 32 32 31 31 29 27 26 25 23 23 23 22 21 20 20 20 20 20 20 19 19 20 20 20 20 19 17 17 17 18 19 20 20 20 20 21 23 24 23 21 19 18 17 17 17 19 20 21 21 21 22 23 23 23 23 22 22 23 24 23 22 22 22 22 22 20 19 18 17 17 16 15 14
12 10 10 11 15 16 17 20 23 26 29 30 30 31 31 31 29 28 27 25 23 23 22 22 21 21 21 21 22 21 20 20 20 20 20 19 19 18 17 17 18 19 19 19 19 19 21 22 23 22 19 18 17 16 17 18 19 20 21 22 22 23 24 24 25 25 24 24 24 24 25 24 23 23 23 23 24 24 23 21 19 17 16 14 14
12 11 10 10 12 13 15 19 22 24 27 29 30 30 31 31 30 28 27 24 23 23 23 22 21 21 22 22 22 21 20 21 21 20 19 18 18 18 17 17 18 18 18 18 19 20 21 22 21 19 17 17 17 17 18 19 20 20 21 22 23 24 25 26 26 27 27 26 26 26 26 25 24 25 25 24 24 24 23 23 21 20 18 15 15
13 12 10 10 10 12 16 20 22 24 26 28 29 30 30 30 30 28 26 24 23 23 22 22 21 21 22 21 20 20 19 19 19 19 18 18 17 17 17 18 18 18 18 18 20 20 21 20 19 18 17 18 18 18 18 19 19 19 20 21 23 24 25 27 27 28 28 28 28 29 28 27 26 26 26 25 25 24 24 24 23 21 20 17 17
12 11 10 10 11 12 16 20 23 25 27 28 29 30 30 30 30 28 25 24 23 23 22 21 21 22 21 19 18 18 18 17 17 16 17 17 17 17 18 18 17 17 18 20 20 20 20 19 18 18 18 18 20 20 20 20 20 20 20 22 23 25 27 28 28 28 28 29 29 30 30 29 29 28 28 28 27 26 26 26 25 24 22 21 20
12 11 11 12 12 12 13 18 23 24 26 27 28 29 30 30 30 27 25 25 23 23 23 22 21 22 21 19 18 17 17 16 16 15 16 17 18 18 18 17 17 18 19 20 20 20 20 19 19 20 20 21 22 22 22 22 22 21 21 22 24 25 27 29 29 29 29 29 29 29 29 30 30 30 30 30 29 29 28 28 28 27 25 24 22
14 14 13 12 13 13 12 17 21 23 26 28 28 29 29 28 28 26 25 25 24 23 23 22 21 21 21 19 18 17 17 16 16 15 16 17 18 18 17 18 19 19 19 19 19 20 20 21 21 22 22 22 22 22 22 22 22 22 22 23 24 25 28 30 31 31 31 30 30 30 30 29 29 29 30 30 30 30 30 30 30 29 27 26 24
16 15 14 12 13 13 13 15 18 23 28 30 30 30 30 29 28 27 26 25 24 23 23 22 22 21 20 19 18 17 18 17 17 16 15 16 17 17 18 19 19 19 19 19 19 20 20 20 20 20 21 21 22 24 23 22 22 23 23 24 26 28 30 32 34 35 34 32 30 30 31 30 30 29 28 28 28 27 28 29 29 29 28 28 26
18 17 15 13 13 13 12 14 18 24 29 32 32 31 30 29 28 27 27 25 24 24 23 23 23 21 20 18 17 18 19 18 17 15 16 17 17 18 19 19 19 20 19 19 19 19 19 18 19 20 22 23 24 24 22 22 23 24 25 26 28 30 31 31 33 34 35 35 31 30 31 30 29 30 29 28 27 26 26 26 26 28 28 29 28
20 18 16 15 13 13 12 15 20 24 27 32 34 31 29 29 29 28 26 25 24 24 24 24 23 22 19 18 17 18 19 18 17 17 17 18 18 18 18 19 20 20 19 18 18 18 19 19 20 22 24 25 25 23 21 22 24 24 24 25 28 31 31 31 33 34 35 35 31 29 30 29 28 28 28 29 28 27 26 25 25 25 26 28 29
20 20 19 17 14 13 15 19 22 25 27 32 34 33 32 31 29 26 25 24 23 24 23 23 23 22 20 19 19 19 19 19 19 18 18 18 17 18 18 19 20 19 18 17 17 17 19 19 20 21 23 24 23 21 20 21 23 24 23 25 28 28 26 25 27 32 35 33 29 28 29 29 28 27 27 28 28 29 28 27 26 25 25 26 28
20 20 20 18 15 15 18 22 24 26 28 29 32 33 32 30 27 24 23 23 23 23 22 23 23 22 21 21 21 20 20 20 19 18 18 17 17 18 19 19 19 18 18 17 18 18 19 19 19 20 21 22 22 19 18 19 22 22 22 25 26 20 16 16 17 22 29 31 29 28 28 28 27 26 26 26 27 28 28 28 27 28 29 29 28
20 21 21 20 19 18 19 22 25 25 24 24 28 31 29 26 25 24 23 23 23 23 22 22 22 22 22 21 21 20 20 20 18 17 17 18 18 18 18 18 18 18 18 18 18 18 18 17 17 17 20 22 21 18 17 19 21 21 22 24 21 13 11 13 12 12 18 25 26 26 26 27 27 26 27 26 26 27 28 27 28 29 30 31 32
19 20 21 23 25 24 23 23 23 21 21 24 28 30 28 26 25 25 24 24 24 24 24 23 22 22 22 22 21 20 20 19 18 18 18 18 18 18 17 17 18 18 18 18 17 17 16 16 16 17 19 22 20 17 16 18 19 20 20 20 17 11 10 12 11 10 10 14 19 22 24 25 26 26 27 26 25 25 25 26 27 28 30 31 32
23 26 28 30 33 31 28 24 20 19 22 26 28 29 29 27 25 25 24 24 24 25 25 24 23 22 22 21 20 19 19 19 18 18 19 19 19 18 16 17 17 18 18 17 16 15 15 15 16 17 19 21 20 15 14 16 18 18 17 17 15 12 9 10 11 11 9 9 11 15 19 21 23 24 25 25 24 23 24 25 27 28 29 29 32
27 31 32 35 36 32 27 23 19 20 23 26 28 29 29 27 26 26 25 25 26 26 26 24 23 22 21 21 20 19 19 19 19 19 19 19 18 17 17 16 17 18 17 15 14 14 15 15 16 17 17 19 19 16 13 15 17 16 15 15 15 13 10 9 11 12 11 9 10 11 13 16 19 21 22 23 22 22 24 26 27 28 28 29 33
32 32 31 34 35 30 24 19 18 22 24 26 28 28 28 28 28 27 26 27 28 28 27 25 23 21 20 19 18 18 18 19 19 20 19 18 18 17 17 16 16 16 15 14 14 15 16 15 15 16 16 17 19 16 12 13 14 14 14 14 15 14 12 11 12 13 13 11 11 12 13 14 17 20 21 22 22 22 25 28 30 29 27 30 35
33 34 35 35 32 27 22 20 23 25 24 26 28 28 28 29 27 26 28 31 31 29 26 23 21 19 19 18 17 17 18 18 19 19 18 18 18 18 16 15 15 14 14 14 14 14 16 16 15 15 16 16 18 16 11 10 12 13 13 14 15 15 14 13 14 15 15 15 14 14 15 16 18 19 20 21 21 22 23 25 28 29 28 32 36
31 34 35 34 31 27 24 26 28 25 23 26 29 28 29 29 26 27 31 34 31 27 24 21 19 18 18 18 17 17 17 18 18 18 18 18 18 17 16 15 14 14 14 14 14 14 15 16 14 14 15 15 15 14 10 9 11 13 14 15 15 16 15 16 17 17 17 17 16 14 14 16 18 19 20 21 22 23 23 24 25 28 31 35 35
33 34 34 32 30 27 26 29 29 24 23 28 29 30 31 29 27 31 36 33 27 24 22 20 19 18 18 18 17 17 17 16 16 16 17 18 17 15 15 14 14 14 14 14 14 14 15 15 14 13 14 13 11 9 8 9 11 14 16 16 15 15 15 16 17 18 16 15 14 13 14 17 20 21 21 22 23 23 24 25 26 27 28 30 31
31 33 35 34 30 27 28 30 27 24 25 28 30 31 31 29 31 36 35 28 24 23 22 20 19 19 19 18 17 16 15 15 15 16 16 16 15 14 14 13 13 13 14 14 14 13 13 14 14 13 12 11 8 6 7 10 14 16 16 15 14 14 14 15 17 17 15 14 14 15 18 20 21 22 22 22 22 23 24 25 26 27 27 26 26
30 32 35 34 30 28 31 30 26 24 25 29 32 31 28 29 36 36 29 24 24 22 21 21 20 20 19 18 17 16 14 14 14 15 15 15 14 14 14 13 12 13 14 14 14 12 12 13 13 12 11 10 8 6 8 12 16 16 15 14 14 13 14 15 16 17 16 16 17 19 21 21 20 20 20 20 20 20 20 20 21 21 22 22 21
31 33 35 33 31 30 30 29 26 24 24 30 35 32 26 30 36 32 26 26 25 22 22 22 21 21 20 18 17 16 14 14 14 14 14 14 14 13 13 12 12 12 13 14 13 12 12 11 12 13 12 10 8 8 10 14 14 13 13 14 14 14 14 14 16 17 17 18 18 18 18 17 17 17 17 18 19 19 19 19 18 17 18 19 19
31 33 34 34 32 30 28 27 26 24 24 30 34 33 32 33 32 27 26 27 25 23 23 23 22 22 20 18 17 16 14 13 13 14 14 14 13 13 13 13 13 12 12 13 13 12 11 10 10 11 10 8 9 10 12 14 12 11 14 15 14 14 15 15 16 17 15 14 14 15 15 16 17 17 16 17 18 20 20 19 17 16 17 18 16
30 33 34 33 30 28 26 26 27 26 26 28 31 35 38 35 28 24 26 27 25 25 25 23 23 22 20 18 18 16 14 13 13 14 15 14 13 13 14 14 14 12 12 12 12 12 10 9 9 9 7 8 10 11 13 14 13 14 17 15 12 14 17 18 17 14 10 10 12 14 15 16 16 15 14 14 14 14 14 13 12 11 12 13 13
33 35 35 31 27 27 27 27 28 29 27 27 29 34 38 35 28 26 26 27 27 27 26 24 24 22 20 19 18 16 14 14 14 15 15 15 14 14 14 15 13 12 12 12 12 11 11 10 10 8 7 8 9 11 14 15 15 17 17 13 13 17 17 14 11 8 7 10 12 13 12 11 10 10 9 9 8 7 7 6 6 6 7 7 7
34 35 34 30 27 28 28 28 30 32 29 26 28 33 36 34 31 29 28 28 29 28 26 24 23 22 20 19 17 16 15 14 14 15 15 16 15 14 14 13 11 10 11 12 12 13 13 12 9 7 6 7 8 11 15 15 15 15 13 12 15 15 10 6 6 6 9 11 10 8 7 6 7 7 6 6 7 7 6 6 6 7 7 7 8
35 35 34 31 29 28 28 29 31 34 30 27 29 31 32 33 33 32 31 31 30 28 26 25 23 22 21 20 18 16 15 14 14 14 14 15 15 14 14 13 11 10 12 12 14 15 14 10 7 6 6 7 10 13 14 13 12 12 11 12 13 9 6 6 7 8 9 8 5 4 6 8 9 9 9 9 10 10 10 10 10 10 9 10 11
34 33 31 31 30 29 29 29 32 34 31 27 28 29 29 31 33 35 35 34 32 30 28 27 25 24 23 21 19 17 15 14 15 14 13 13 13 13 15 15 13 12 12 13 13 12 10 8 6 7 7 8 10 12 11 10 10 9 10 11 9 6 6 8 8 6 5 3 4 6 7 9 9 10 10 10 11 12 12 12 12 12 11 12 13
Wind_Direction
223 222 233 235 228 228 235 239 250 264 270 280 287 293 299 303 308 313 319 324 324 329 332 323 328 336 334 328 329 329 331 333 328 336 336 324 328 336 331 336 340 348 357 2 3 358 349 346 343 340 342 347 349 351 351 347 344 343 343 345 347 348 349 351 351 352 355 351 343 338 337 341 347 355 12 24 1 350 343 325 311 304 290 279 277
220 226 234 228 224 227 233 238 250 261 267 277 282 288 294 299 305 311 318 321 322 328 323 318 333 340 325 322 325 327 329 331 332 339 331 319 327 333 327 327 331 337 340 344 349 345 341 339 340 342 343 346 343 336 339 339 339 342 344 343 344 346 346 349 351 356 4 355 343 335 337 344 349 350 349 335 343 352 351 336 328 325 310 293 284
223 232 233 225 225 229 232 240 253 259 264 272 276 282 289 294 303 309 315 318 321 325 313 314 332 336 325 325 324 322 323 325 327 327 317 310 320 325 321 320 324 329 329 332 336 336 334 329 327 326 325 330 331 327 327 329 332 334 340 342 340 338 339 344 351 359 2 354 350 338 336 343 337 352 340 315 327 344 345 337 336 339 335 314 294
227 235 232 224 223 226 234 246 253 253 257 264 269 276 284 291 299 306 311 316 320 320 309 313 325 329 332 334 323 317 318 318 312 306 307 308 311 316 318 319 322 326 327 330 332 329 327 323 321 316 313 318 321 322 322 322 323 325 331 335 336 338 337 336 337 349 356 357 1 335 332 343 314 352 337 316 323 339 333 332 328 335 357 352 327
224 231 231 222 222 230 241 248 247 246 251 259 265 272 280 288 296 302 306 310 316 316 310 314 321 327 338 339 327 320 322 324 318 313 315 316 315 315 316 320 324 327 330 332 328 323 319 318 318 313 312 313 314 318 318 317 317 319 322 321 325 330 329 326 320 328 343 354 15 345 331 351 302 334 332 314 325 331 322 329 331 328 343 348 350
223 230 233 228 231 236 242 242 239 243 251 259 264 269 276 284 290 295 298 302 309 313 311 310 313 326 340 338 327 323 321 319 318 315 314 315 315 314 315 322 329 328 325 322 320 316 313 313 312 310 311 310 310 314 313 314 314 310 311 309 311 314 313 315 310 314 323 320 328 314 258 278 300 325 333 304 318 323 321 335 330 326 332 333 339
227 233 234 233 234 233 236 238 237 243 254 260 261 263 270 278 283 287 290 294 299 306 308 303 306 319 332 329 318 312 305 303 306 307 307 309 310 311 317 325 324 319 316 315 316 315 312 311 309 308 309 307 306 308 308 310 308 304 306 304 304 305 303 305 304 306 308 296 298 281 262 283 284 290 304 293 314 318 316 321 315 320 331 324 324
222 229 229 228 230 230 235 240 241 247 255 256 255 259 265 271 276 278 281 286 291 296 298 296 301 309 315 317 308 299 294 297 301 302 302 304 306 310 316 316 312 314 317 318 319 318 317 315 314 315 314 313 310 308 307 304 302 303 304 301 297 296 297 299 299 298 294 287 287 277 276 285 268 256 273 281 291 300 305 313 312 314 320 317 318
220 224 225 225 228 233 240 244 246 250 252 253 254 257 261 265 268 270 274 278 284 289 288 290 295 299 301 302 297 294 292 292 296 298 300 301 303 306 307 306 310 316 318 319 319 320 321 320 321 323 321 320 316 309 303 299 302 306 304 302 299 295 292 291 292 292 286 283 284 283 281 275 263 259 271 273 265 272 292 306 312 317 320 316 317
224 226 228 229 233 239 243 244 247 249 250 252 253 253 255 258 260 263 269 274 279 282 281 283 288 289 290 290 290 290 289 290 291 291 295 300 300 299 300 302 308 313 313 316 318 319 322 322 321 319 316 315 310 303 302 301 303 304 304 306 303 298 294 289 287 286 282 281 279 279 275 263 267 265 253 260 264 270 285 298 310 318 318 308 310
225 228 232 234 239 242 240 240 245 247 247 246 246 248 250 253 255 259 265 271 276 277 276 277 281 282 282 282 282 285 285 283 280 279 287 295 294 293 297 301 303 306 309 311 313 316 319 318 314 312 311 308 303 302 302 300 299 298 299 301 299 296 296 293 289 283 279 279 277 275 272 261 258 255 248 262 275 282 290 299 303 306 303 298 303
226 227 232 234 236 235 233 236 242 242 240 241 242 244 247 249 251 255 260 268 272 273 271 272 275 276 276 275 276 281 281 272 266 270 278 285 287 290 294 298 300 302 306 307 308 311 313 312 310 308 306 304 302 300 298 295 294 295 294 293 291 289 291 291 288 286 284 282 277 272 271 265 259 259 264 268 265 268 282 293 299 301 300 294 298
228 228 229 227 228 229 229 233 236 236 236 238 240 241 244 247 247 250 258 266 270 269 268 268 270 269 270 271 273 278 276 265 260 264 270 275 279 284 289 294 297 300 302 303 303 306 307 307 306 304 303 303 302 299 297 296 295 294 292 289 286 285 285 285 283 284 286 285 280 270 265 261 259 260 265 267 264 268 278 284 289 292 291 291 296
230 230 230 227 227 229 231 233 234 234 236 237 238 240 242 244 244 248 256 264 266 266 265 264 265 265 266 267 270 273 270 262 259 261 264 267 270 276 283 288 292 294 297 298 299 302 303 303 303 302 302 302 300 299 297 296 294 292 290 286 284 282 281 280 278 279 279 280 280 277 271 267 268 268 266 267 267 267 267 271 283 289 288 290 293
234 233 234 232 231 231 232 234 234 234 235 236 237 238 239 241 243 246 252 258 262 263 263 262 262 263 264 265 268 269 264 260 259 259 259 261 264 272 280 284 286 289 293 294 296 298 299 301 302 300 301 300 299 298 295 294 293 290 287 284 282 280 278 277 275 274 273 272 274 278 280 278 278 277 270 265 263 263 264 268 276 286 288 290 290
236 234 237 235 233 233 233 234 234 234 234 235 236 236 236 238 241 244 250 255 258 260 260 260 260 261 263 264 266 262 255 253 255 256 259 262 267 274 278 279 281 286 290 290 292 296 297 298 299 298 300 299 298 296 294 294 293 290 287 284 282 279 276 274 274 272 270 270 270 272 274 276 277 277 274 270 267 264 264 266 267 271 280 286 287
238 235 236 236 234 233 233 233 233 233 233 234 236 236 237 239 240 243 248 252 254 256 258 257 257 260 263 263 262 256 251 253 257 260 264 266 269 271 272 275 280 284 286 288 292 294 294 295 297 298 299 299 298 296 295 293 292 290 286 283 282 280 277 274 272 271 269 268 268 267 267 271 274 275 274 275 274 270 265 264 263 264 270 277 284
244 241 239 238 235 232 232 232 233 234 235 236 237 237 238 239 240 241 245 249 253 256 256 255 255 259 262 261 257 253 251 254 260 263 265 266 266 268 271 276 281 282 284 289 291 290 291 294 297 298 298 298 297 295 294 292 289 287 284 282 281 278 275 273 271 269 268 267 266 265 264 265 267 269 270 271 275 275 269 266 263 261 266 270 271
246 243 239 237 234 231 230 231 233 234 236 237 237 237 236 237 239 241 246 251 255 255 253 252 254 258 261 262 259 254 252 254 259 261 261 263 266 270 275 277 280 281 285 287 287 287 292 295 296 296 296 296 295 292 290 289 287 283 282 281 279 277 274 272 271 269 267 266 264 262 261 262 264 267 268 268 270 273 273 273 272 269 272 277 276
242 239 237 234 232 231 229 229 232 234 235 235 235 234 235 236 237 240 245 250 252 251 249 249 253 259 263 262 258 254 252 255 258 260 260 264 269 273 274 276 279 282 283 282 283 287 292 294 295 294 294 293 292 289 287 285 283 281 279 279 277 276 273 271 270 268 266 264 262 262 261 260 262 265 267 267 267 269 272 274 276 275 276 285 285
242 237 235 233 231 231 230 231 233 234 233 233 232 233 234 235 236 239 242 245 247 247 247 249 253 259 261 257 252 251 254 256 258 260 262 266 270 271 273 276 280 279 278 279 283 287 290 291 292 292 291 291 288 286 284 282 279 278 277 277 276 275 273 271 270 268 265 263 261 261 261 260 261 262 264 265 265 266 268 268 268 270 272 279 285
243 237 234 232 230 229 229 230 230 229 229 229 230 231 231 233 235 238 240 242 245 246 246 249 254 257 258 255 251 250 253 256 258 260 263 266 269 270 274 276 276 274 276 280 284 287 287 288 289 290 290 289 286 284 283 279 277 276 276 276 275 274 272 271 269 267 265 263 261 259 259 259 259 260 261 263 265 266 266 264 261 264 269 271 276
249 243 238 233 232 230 227 227 226 225 226 227 227 228 229 232 234 235 238 241 245 247 248 249 252 255 256 253 250 251 255 257 258 260 264 267 269 271 274 273 271 274 279 282 283 284 285 286 287 289 289 285 282 279 277 275 272 273 275 275 274 273 271 271 269 268 266 264 261 259 258 258 257 258 260 262 264 265 265 265 262 261 264 268 273
254 248 244 238 235 231 225 224 223 224 225 224 225 226 228 231 233 233 237 242 244 245 246 246 250 254 253 250 251 254 256 256 257 261 264 266 268 271 271 269 270 276 280 280 281 281 284 286 286 286 283 279 277 275 274 272 271 272 274 274 274 273 271 271 270 269 268 265 263 260 258 257 256 255 257 259 260 262 262 264 263 260 261 268 277
259 252 247 239 234 229 225 224 222 222 223 223 224 225 227 229 230 232 237 241 242 241 241 245 249 251 250 250 252 254 254 256 259 262 263 265 269 269 266 266 271 277 278 277 279 281 284 285 283 280 276 274 274 273 273 272 272 272 272 273 274 273 272 272 271 270 269 266 264 262 260 258 255 253 253 253 254 256 258 258 257 256 259 266 274
263 256 248 238 234 232 228 226 224 222 222 222 223 224 226 228 230 233 237 238 238 238 240 243 246 248 249 249 249 250 252 255 257 259 263 266 267 264 263 268 273 274 273 275 279 282 283 282 278 274 272 272 272 271 270 271 271 270 270 271 273 274 273 273 271 271 270 267 264 263 262 259 255 252 252 251 251 253 254 253 252 254 257 263 270
269 263 254 244 238 234 231 228 226 224 223 223 223 223 224 226 229 232 235 236 237 238 239 243 246 247 247 244 244 248 252 253 252 255 261 263 262 262 267 271 271 270 273 278 280 281 280 278 275 273 271 271 271 270 268 268 267 267 268 270 272 274 275 275 273 270 269 267 265 263 261 259 256 253 252 251 250 249 250 250 251 253 256 259 264
275 266 256 250 244 239 234 229 227 225 224 224 224 224 225 227 230 233 234 234 236 237 239 242 244 245 243 240 243 248 250 250 250 254 258 260 262 265 268 268 269 272 277 279 279 279 279 277 275 272 271 273 273 271 269 269 270 269 268 270 273 274 275 274 274 271 268 265 264 263 262 260 257 255 254 252 251 249 248 249 251 252 253 254 256
283 274 263 253 248 245 236 230 228 225 223 223 222 223 224 227 230 232 233 234 234 235 238 241 241 240 240 242 246 249 247 247 249 253 255 258 262 264 265 268 273 276 278 278 278 279 279 278 277 275 274 275 274 270 270 272 273 273 273 274 276 276 274 273 272 271 269 264 262 262 262 261 258 258 256 254 252 250 248 248 250 250 247 247 249
289 283 274 259 252 248 240 235 230 224 222 220 219 219 220 222 226 227 229 231 232 233 236 238 237 237 240 244 246 247 245 247 251 252 252 255 259 263 267 272 276 278 279 280 280 280 279 277 274 273 272 272 270 270 272 274 270 269 272 274 275 276 275 272 270 269 266 264 261 260 262 262 259 257 254 249 247 247 247 246 248 249 246 244 244
296 291 286 274 259 250 243 236 231 227 223 220 218 218 217 219 222 224 226 228 229 231 234 236 236 237 241 243 242 243 246 250 251 249 249 254 259 265 270 274 276 279 281 282 281 279 277 272 270 272 272 272 272 274 277 276 271 268 269 270 272 273 272 268 266 264 263 262 260 258 262 263 259 255 251 246 245 245 246 247 247 247 246 245 242
304 301 297 289 272 256 245 237 234 231 226 222 219 215 212 215 218 220 223 225 226 229 233 235 236 237 239 238 237 242 247 250 249 248 250 256 263 267 270 274 277 280 282 281 279 276 274 273 273 275 275 275 275 277 278 277 274 273 273 271 272 273 271 266 262 259 260 262 258 255 259 262 260 257 254 251 249 246 245 247 249 248 247 245 243
309 307 304 299 286 265 249 241 238 233 228 226 220 212 210 214 216 217 219 220 223 227 230 233 235 237 238 237 239 243 248 250 251 251 254 259 262 265 269 274 279 281 281 278 276 275 276 277 277 277 277 277 277 279 281 279 277 277 277 276 277 278 278 277 269 260 257 258 256 251 253 259 262 260 256 254 253 252 249 248 248 249 250 248 246
310 309 307 303 295 277 259 249 243 237 234 231 221 214 213 214 213 214 216 217 220 223 226 230 234 236 238 239 243 246 249 252 252 252 255 259 260 264 271 276 279 279 278 276 275 278 279 279 279 278 279 280 279 281 285 283 281 280 280 282 285 287 294 302 295 274 258 253 253 251 251 258 263 261 258 255 254 254 253 251 249 248 247 246 245
313 312 310 308 302 288 267 253 246 240 233 224 215 211 210 209 209 211 213 215 219 220 223 228 232 236 239 240 243 247 250 252 251 253 256 258 260 266 272 275 276 276 276 277 278 280 281 280 280 280 282 283 282 284 288 285 283 284 284 288 293 295 302 311 318 304 272 257 255 253 253 258 263 264 265 261 257 255 252 250 250 250 248 247 245
312 310 308 307 304 294 277 262 251 238 224 214 210 207 203 203 206 209 211 214 217 219 222 226 231 236 239 241 244 247 249 250 252 255 256 258 263 268 271 273 275 277 278 278 278 279 281 282 283 283 284 285 284 286 289 286 286 288 289 295 300 297 301 310 316 322 305 276 266 261 258 261 266 268 270 267 261 256 250 246 247 250 252 252 250
314 313 310 309 305 297 286 271 253 234 222 214 207 203 200 200 204 207 211 213 215 218 221 225 231 236 240 242 245 246 247 250 253 254 256 261 266 268 270 273 276 276 277 277 278 281 283 284 286 284 285 287 287 290 290 287 291 292 291 300 306 300 300 311 308 308 313 308 294 279 269 269 271 273 277 273 261 248 243 243 245 247 249 251 253
319 317 314 312 309 301 290 275 254 237 228 215 204 200 198 199 203 207 210 213 215 219 222 225 232 237 241 244 245 245 246 250 253 254 257 263 266 267 271 275 274 273 274 276 281 285 285 284 285 285 286 287 288 293 294 290 291 293 292 302 311 305 301 309 308 302 300 301 302 291 279 275 276 279 283 280 265 246 239 241 243 245 245 246 252
321 321 318 314 311 303 291 274 252 241 230 213 203 200 198 200 206 209 211 214 218 222 224 228 234 239 242 244 244 243 246 249 253 257 260 264 267 270 274 276 274 271 273 278 281 283 284 285 285 287 288 287 286 292 298 294 291 292 295 304 310 307 304 306 306 302 299 295 289 281 276 275 278 281 282 279 271 256 244 240 240 241 240 245 253
322 324 322 317 311 300 284 267 254 247 233 212 204 201 200 204 209 210 213 220 225 228 228 231 236 241 242 241 240 241 245 250 254 259 264 267 270 273 274 273 272 270 272 278 280 280 283 286 288 291 293 290 290 294 300 296 291 293 299 306 306 304 303 305 304 301 298 292 282 272 271 276 281 280 275 273 274 269 259 250 243 235 235 248 257
323 325 325 322 313 298 282 271 265 254 232 214 206 201 203 209 209 211 220 228 232 231 229 230 236 239 238 237 237 240 245 252 257 261 267 269 270 271 270 270 272 273 273 277 280 282 285 288 290 295 296 295 294 297 298 293 292 298 304 304 301 298 299 300 299 294 290 286 278 270 274 280 281 277 272 272 276 276 272 268 258 245 245 255 259
326 328 331 327 316 302 289 279 272 257 234 219 207 204 208 209 208 218 229 234 232 228 226 229 233 235 234 234 237 241 246 252 256 261 266 269 267 265 267 269 271 273 276 278 281 284 287 290 295 298 299 300 302 298 293 294 299 305 306 301 295 292 291 290 287 284 282 279 275 276 283 284 279 275 274 274 275 272 270 270 268 262 260 261 258
328 330 332 330 321 309 297 287 276 258 239 223 210 210 212 208 214 229 235 233 228 225 225 228 230 230 231 233 237 241 244 248 253 259 263 265 263 263 266 268 269 271 275 277 280 284 286 291 299 305 307 310 311 296 289 302 309 309 305 299 293 290 287 284 283 284 284 285 286 289 289 284 276 273 274 274 273 273 271 270 271 270 269 267 262
328 328 329 328 322 313 305 296 281 260 242 226 217 215 212 211 225 235 233 225 225 223 221 224 226 226 228 231 236 239 241 245 250 254 257 257 258 261 265 265 266 269 272 274 278 282 284 289 299 309 315 320 319 300 296 310 314 309 303 300 296 292 289 286 286 288 291 292 291 286 281 276 272 273 276 279 280 279 277 277 278 279 278 277 274
325 325 326 326 322 316 309 299 284 265 246 232 224 219 215 222 232 233 224 222 223 219 218 222 222 221 224 228 233 236 239 242 245 246 248 249 252 259 263 264 265 266 267 270 275 280 282 285 295 306 314 318 313 305 310 315 313 306 304 305 301 297 294 291 289 291 291 289 285 281 279 281 283 285 287 288 288 285 284 287 290 289 287 283 277
324 325 325 325 324 321 314 303 291 274 254 240 231 223 223 231 234 227 221 222 219 215 217 219 218 219 222 224 228 233 236 240 240 238 239 241 246 254 260 263 264 264 263 266 271 277 279 282 290 296 300 301 302 309 316 314 307 304 308 310 307 304 299 295 296 296 291 284 282 285 291 293 293 292 290 287 285 283 282 284 284 281 279 278 274
323 322 323 323 324 322 318 310 301 287 266 248 236 230 232 236 234 225 220 218 214 213 215 215 215 217 219 221 225 230 234 237 234 230 231 235 240 248 255 257 258 259 260 263 267 268 270 277 285 286 287 295 304 311 312 309 305 305 308 311 314 311 304 303 305 301 288 283 288 291 292 289 284 282 281 278 278 278 278 277 278 279 278 275 273
321 321 322 323 321 320 318 313 307 298 281 258 242 238 238 235 229 224 218 212 210 212 213 214 215 216 217 221 224 226 230 233 228 223 225 230 234 241 247 250 250 253 257 261 263 267 274 280 280 280 285 292 297 303 307 306 302 301 305 313 317 309 304 306 314 307 291 295 298 295 291 288 287 285 282 281 282 285 287 289 294 304 306 302 296
320 319 319 318 317 316 315 312 308 304 291 267 250 247 243 234 226 222 215 209 209 210 211 213 214 214 216 220 222 225 229 231 227 222 223 228 232 235 241 245 247 250 256 259 263 275 287 286 277 276 284 282 287 297 300 299 297 299 307 315 312 308 308 323 338 324 306 302 301 301 309 324 334 338 340 337 336 337 337 338 341 344 342 346 352
318 317 315 315 315 314 314 312 310 307 297 275 259 253 246 235 225 219 214 211 209 207 207 210 211 212 215 216 217 221 225 227 227 225 225 229 231 231 235 246 256 257 255 257 262 272 279 277 274 290 296 286 288 295 299 301 304 310 315 312 312 322 341 338 326 310 300 302 317 347 6 15 11 7 5 357 350 350 349 347 351 357 360 1 2
316 315 312 312 314 315 315 315 314 311 302 283 266 258 248 236 225 218 216 214 209 205 206 208 210 211 213 213 215 217 221 224 226 224 224 230 234 231 231 240 253 258 254 254 260 267 271 272 283 297 296 290 291 294 299 308 316 321 320 317 330 5 358 330 318 295 283 331 34 29 22 21 15 10 6 355 349 352 349 344 344 349 359 5 3